Location: Kaikalui
(16.5250°N, 81.1500°E)
Time: 11:52:06
(UTC+00:00)

Centaur D-1AR AC-41 - Pass Details

Date: 14 April 2026
Orbit: 561 x 36265 km, 21.0° (Epoch: 20 May)

Event Time Altitude Azimuth Distance (km) Brightness Sun altitude
Exits shadow 23:19:10 18° 293° (WNW) 1,622 4.2 -15.2°
Maximum altitude 23:22:01 62° 12° (NNE) 1,033 3.8 -14.5°
Drops below altitude 10° 23:33:40 10° 92° (E) 6,027 8.9 -11.8°
Sets 23:44:47 0° 96° (E) 10,444 10.4 -9.2°
